Location: Newark
(1.2833°S, 36.8167°E)
Time: 04:32:30
(UTC+00:00)

Hubble Space Telescope - Visible Passes

Search period start: 25 September 2020 00:00
Search period end: 05 October 2020 00:00
Orbit: 536 x 540 km, 28.5° (Epoch: 24 September)

Date Brightness Start Highest point End Pass type
(mag) Time Alt. Az. Time Alt. Az. Time Alt. Az.
02 Oct 3.3 17:11:25 10° SSW 17:12:16 14° SSW 17:12:16 14° SSW visible
03 Oct 2.6 17:00:18 10° SSW 17:02:26 23° S 17:02:26 23° S visible
04 Oct 1.6 16:49:19 10° SW 16:52:39 38° S 16:52:39 38° S visible
